CW4845 Weather Reports


time (UTC)temp
C
wind
direction
speed
KPH
gust
KPH
rain 1hr
cm
rain 24hr
cm
rain mn
cm
humidity
%
barometer
mb
20260905091336 24 313 6.4 11.3 0.00 0.00 0.00 68 1008.4
20260905090829 24 344 8.0 16.1 0.00 0.00 0.00 68 1008.4
20260905090330 24 298 8.0 16.1 0.00 0.00 0.00 68 1008.4
20260905085818 24 328 8.0 14.5 0.00 0.00 0.00 68 1008.4
20260905085318 24 312 8.0 17.7 0.00 0.00 0.00 67 1008.4
20260905084808 24 347 8.0 17.7 0.00 0.00 0.00 67 1008.4
20260905084300 24 326 6.4 14.5 0.00 0.00 0.00 67 1008.4
20260905083800 24 340 6.4 11.3 0.00 0.00 0.00 67 1008.4
20260905083249 24 296 8.0 12.9 0.00 0.00 0.00 67 1008.4
20260905082751 24 328 6.4 12.9 0.00 0.00 0.00 66 1008.5
20260905082233 24 315 8.0 14.5 0.00 0.00 0.00 66 1008.5
20260905081721 24 338 8.0 14.5 0.00 0.00 0.00 66 1008.5
20260905081219 24 318 8.0 16.1 0.00 0.00 0.00 67 1008.5
20260905080722 24 328 8.0 16.1 0.00 0.00 0.00 67 1008.5
20260905080219 24 354 8.0 12.9 0.00 0.00 0.00 67 1008.5
20260905075720 24 342 8.0 11.3 0.00 0.00 0.00 67 1008.5
20260905075432 25 346 8.0 11.3 0.00 0.00 0.00 66 1008.5
20260905074703 25 317 8.0 11.3 0.00 0.00 0.00 66 1008.5
20260905074204 25 334 8.0 14.5 0.00 0.00 0.00 65 1008.5
20260905073903 25 326 8.0 14.5 0.00 0.00 0.00 66 1008.5
20260905073119 25 328 6.4 14.5 0.00 0.00 0.00 66 1008.5
20260905072619 25 351 8.0 14.5 0.00 0.00 0.00 66 1008.5
20260905072118 25 332 8.0 14.5 0.00 0.00 0.00 66 1008.5
20260905071617 25 328 9.7 16.1 0.00 0.00 0.00 66 1008.5
20260905071337 25 338 9.7 16.1 0.00 0.00 0.00 65 1008.5
20260905070817 25 340 9.7 16.1 0.00 0.00 0.00 66 1008.5
20260905070055 25 351 9.7 17.7 0.00 0.00 0.00 66 1008.5
20260905065539 25 323 9.7 17.7 0.00 0.00 0.00 66 1008.5
20260905065042 25 355 11.3 16.1 0.00 0.00 0.00 66 1008.5
20260905064515 25 344 11.3 17.7 0.00 0.00 0.00 65 1008.5
20260905064011 25 338 11.3 19.3 0.00 0.00 0.00 66 1008.5
20260905063443 25 350 12.9 19.3 0.00 0.00 0.00 66 1008.5
20260905062918 25 333 11.3 19.3 0.00 0.00 0.00 65 1008.7
20260905062351 25 355 11.3 22.5 0.00 0.00 0.00 65 1008.7
20260905061847 25 348 12.9 22.5 0.00 0.00 0.00 64 1008.7
20260905061344 25 1 12.9 20.9 0.00 0.00 0.00 65 1008.6
20260905060816 25 349 11.3 20.9 0.00 0.00 0.00 64 1008.6
20260905060314 25 334 11.3 19.3 0.00 0.00 0.00 64 1008.6
20260905055747 25 352 11.3 20.9 0.00 0.03 0.00 64 1008.9
20260905055243 25 358 11.3 20.9 0.00 0.03 0.00 63 1008.9
20260905054741 25 0 9.7 17.7 0.00 0.05 0.00 64 1008.9
20260905054503 25 353 9.7 20.9 0.00 0.05 0.00 63 1008.9
20260905053936 25 357 11.3 20.9 0.00 0.05 0.00 63 1008.9
20260905053152 25 355 12.9 19.3 0.00 0.05 0.00 63 1008.9
20260905052653 26 347 11.3 19.3 0.00 0.05 0.00 63 1009.0
20260905052154 26 358 9.7 17.7 0.00 0.05 0.00 64 1009.0
20260905051642 26 343 11.3 19.3 0.00 0.05 0.00 63 1009.0
20260905051145 26 344 12.9 19.3 0.00 0.05 0.00 62 1009.2
20260905050623 26 8 11.3 17.7 0.00 0.05 0.00 62 1009.2
20260905050322 26 356 11.3 17.7 0.00 0.05 0.00 63 1009.2
20260905045539 26 356 12.9 22.5 0.00 0.05 0.00 62 1009.4
20260905045025 26 359 11.3 22.5 0.00 0.05 0.00 61 1009.4
20260905044512 26 348 9.7 20.9 0.00 0.05 0.00 61 1009.4
20260905044246 26 347 9.7 20.9 0.00 0.05 0.00 62 1009.6
20260905043454 26 330 11.3 19.3 0.00 0.05 0.00 62 1009.6
20260905042924 26 359 12.9 20.9 0.00 0.05 0.00 62 1009.6
20260905042421 26 335 9.7 16.1 0.00 0.05 0.00 63 1009.6
20260905041920 26 312 9.7 17.7 0.00 0.05 0.00 64 1009.6
20260905041411 26 309 9.7 17.7 0.00 0.05 0.00 64 1009.6
20260905040913 26 330 11.3 17.7 0.00 0.05 0.00 64 1009.6
20260905040404 26 0 9.7 17.7 0.00 0.05 0.00 64 1009.6
20260905035903 26 346 8.0 17.7 0.00 0.05 0.05 65 1009.6
20260905035405 26 359 8.0 14.5 0.00 0.05 0.05 65 1009.6
20260905034902 27 341 8.0 14.5 0.00 0.05 0.05 65 1009.6
20260905034400 27 0 8.0 11.3 0.00 0.05 0.05 65 1009.5
20260905033859 27 353 8.0 14.5 0.00 0.05 0.05 65 1009.5
20260905033359 27 333 8.0 14.5 0.00 0.05 0.05 66 1009.5
20260905032901 27 346 8.0 14.5 0.00 0.05 0.05 65 1009.5
20260905032340 27 351 8.0 14.5 0.00 0.05 0.05 64 1009.5
20260905031843 27 320 8.0 12.9 0.00 0.05 0.05 64 1009.5
20260905031335 27 302 8.0 12.9 0.00 0.05 0.05 65 1009.5
20260905031051 27 320 8.0 14.5 0.00 0.05 0.05 64 1009.5
20260905030331 27 324 6.4 14.5 0.00 0.05 0.05 64 1009.5
20260905025831 27 318 6.4 12.9 0.00 0.05 0.05 65 1009.4
20260905025553 27 348 6.4 12.9 0.00 0.05 0.05 65 1009.4
20260905024831 27 317 6.4 11.3 0.00 0.05 0.05 66 1009.4
20260905024322 27 338 8.0 14.5 0.00 0.05 0.05 65 1009.4
20260905023821 27 334 8.0 14.5 0.00 0.05 0.05 65 1009.4
20260905023322 27 326 8.0 14.5 0.00 0.05 0.05 65 1009.4
20260905022813 27 321 8.0 14.5 0.00 0.05 0.05 64 1009.4
20260905022537 27 352 8.0 16.1 0.00 0.05 0.05 65 1009.4
20260905021812 27 348 8.0 16.1 0.00 0.05 0.05 65 1009.4
20260905021302 27 336 9.7 16.1 0.00 0.05 0.05 66 1009.4
20260905020740 27 342 8.0 14.5 0.00 0.05 0.05 67 1009.4
20260905020233 27 333 8.0 14.5 0.00 0.05 0.05 68 1009.4
20260905020003 27 353 6.4 12.9 0.00 0.05 0.05 70 1009.6
20260905015438 27 310 8.0 11.3 0.00 0.05 0.05 70 1009.6
20260905014651 27 332 8.0 14.5 0.00 0.05 0.05 70 1009.6
20260905014137 27 346 8.0 14.5 0.00 0.05 0.05 70 1009.6
20260905013640 27 334 6.4 11.3 0.00 0.05 0.05 70 1009.6
20260905013114 27 339 8.0 16.1 0.00 0.05 0.05 70 1009.6
20260905012611 27 318 8.0 16.1 0.00 0.05 0.05 70 1009.6
20260905012044 27 344 8.0 14.5 0.00 0.05 0.05 70 1009.6
20260905011806 27 318 6.4 12.9 0.00 0.05 0.05 71 1009.6
20260905011038 27 308 6.4 11.3 0.00 0.05 0.05 71 1009.4
20260905010535 27 307 4.8 11.3 0.00 0.05 0.05 71 1009.4
20260905010012 27 305 4.8 8.0 0.00 0.05 0.05 71 1009.4
20260905005504 27 317 6.4 9.7 0.00 0.05 0.05 71 1009.1
20260905004938 27 334 6.4 9.7 0.00 0.05 0.05 70 1009.1
20260905004426 28 326 4.8 9.7 0.00 0.05 0.05 70 1009.0
20260905003927 28 334 6.4 11.3 0.00 0.05 0.05 70 1009.0
20260905003628 28 317 6.4 11.3 0.00 0.05 0.05 70 1009.0
20260905002850 28 331 4.8 9.7 0.00 0.05 0.05 70 1009.0
20260905002314 28 301 4.8 9.7 0.00 0.05 0.05 70 1009.0
20260905001753 28 330 6.4 9.7 0.00 0.05 0.05 69 1008.9
20260905001228 28 296 6.4 9.7 0.00 0.05 0.05 69 1009.0
20260905000705 28 307 6.4 11.3 0.00 0.05 0.05 69 1009.1
20260905000149 28 309 6.4 11.3 0.00 0.05 0.05 68 1009.1
20260904235906 28 330 6.4 11.3 0.00 0.05 0.05 68 1009.1
20260904235148 28 302 6.4 11.3 0.00 0.05 0.05 68 1009.1
20260904234644 28 338 6.4 11.3 0.00 0.05 0.05 68 1009.1
20260904234132 28 310 6.4 11.3 0.00 0.05 0.05 68 1009.3
20260904233627 28 313 6.4 9.7 0.00 0.05 0.05 69 1009.3
20260904233127 28 317 6.4 9.7 0.00 0.05 0.05 69 1009.3
20260904232853 28 304 8.0 11.3 0.00 0.05 0.05 67 1009.2
20260904232123 28 310 8.0 11.3 0.00 0.05 0.05 66 1009.2
20260904231623 28 303 8.0 11.3 0.00 0.05 0.05 66 1009.2
20260904231329 28 281 9.7 14.5 0.00 0.05 0.05 66 1009.4
20260904230612 28 311 9.7 16.1 0.00 0.05 0.05 65 1009.4
20260904230058 29 308 9.7 16.1 0.00 0.05 0.05 65 1009.4
20260904225825 29 305 11.3 17.7 0.00 0.05 0.05 65 1009.4
20260904225312 29 312 14.5 22.5 0.00 0.05 0.05 63 1009.4
20260904224758 29 290 14.5 22.5 0.00 0.05 0.05 63 1009.4
20260904224024 29 332 14.5 20.9 0.00 0.05 0.05 62 1009.2
20260904223524 29 294 14.5 20.9 0.00 0.05 0.05 62 1009.2
20260904222953 29 303 12.9 19.3 0.00 0.05 0.05 63 1009.2
20260904222452 29 319 14.5 19.3 0.00 0.05 0.05 62 1009.2
20260904221952 29 301 14.5 20.9 0.00 0.05 0.05 62 1009.2
20260904221452 30 309 16.1 20.9 0.00 0.05 0.05 61 1009.2
20260904221210 30 290 16.1 22.5 0.00 0.05 0.05 60 1009.2
20260904220453 30 298 16.1 22.5 0.00 0.05 0.05 60 1009.2
20260904220213 30 301 14.5 22.5 0.00 0.05 0.05 61 1009.2
20260904215453 29 336 8.0 22.5 0.00 0.05 0.05 66 1009.3
20260904214937 28 298 4.8 14.5 0.00 0.05 0.05 68 1009.3
20260904214424 27 319 8.0 14.5 0.00 0.05 0.05 70 1009.2
20260904213925 27 147 11.3 16.1 0.00 0.05 0.05 72 1009.2
20260904213407 27 119 11.3 16.1 0.00 0.05 0.05 72 1009.2
20260904212908 27 141 9.7 16.1 0.00 0.05 0.05 71 1009.0
20260904212606 27 133 9.7 16.1 0.00 0.05 0.05 70 1009.0
20260904211819 27 143 11.3 19.3 0.00 0.05 0.05 70 1009.0
20260904211320 27 121 11.3 19.3 0.00 0.05 0.05 71 1009.1
20260904210755 27 148 11.3 19.3 0.00 0.05 0.05 71 1009.1
20260904210253 27 143 12.9 19.3 0.00 0.05 0.05 72 1009.1
20260904205726 27 164 11.3 20.9 0.00 0.05 0.05 72 1009.3
20260904205159 27 178 14.5 24.1 0.00 0.05 0.05 73 1009.3
20260904204656 27 170 14.5 24.1 0.00 0.05 0.05 72 1009.3
20260904204153 27 172 12.9 20.9 0.00 0.05 0.05 74 1009.5
20260904204144 27 148 14.5 24.1 0.00 0.05 0.05 76 1009.5
20260904203124 27 155 16.1 24.1 0.00 0.05 0.05 75 1009.5
20260904202621 27 181 16.1 25.7 0.00 0.05 0.05 75 1009.6
20260904202342 27 172 17.7 25.7 0.00 0.05 0.05 75 1009.6
20260904201820 27 159 12.9 22.5 0.00 0.05 0.05 76 1009.6
20260904201029 28 172 9.7 19.3 0.00 0.05 0.05 75 1009.6
20260904200531 27 150 11.3 20.9 0.00 0.05 0.05 75 1009.6
20260904200004 27 170 11.3 20.9 0.00 0.05 0.05 76 1009.6
20260904195704 27 196 9.7 19.3 0.00 0.05 0.05 76 1009.9
20260904194939 27 190 8.0 16.1 0.00 0.05 0.05 75 1009.9
20260904194414 27 147 8.0 16.1 0.00 0.05 0.05 75 1010.1
20260904193859 27 191 8.0 14.5 0.00 0.05 0.05 75 1010.1
20260904193359 28 115 8.0 14.5 0.00 0.05 0.05 73 1010.1
20260904193054 27 199 8.0 16.1 0.00 0.05 0.05 73 1010.1
20260904192530 27 189 4.8 16.1 0.00 0.05 0.05 75 1010.1
20260904192418 27 214 6.4 16.1 0.00 0.05 0.05 75 1010.1
20260904191305 27 226 6.4 16.1 0.00 0.05 0.05 74 1010.1
20260904190805 27 125 8.0 14.5 0.00 0.05 0.05 73 1010.1
20260904190251 27 157 6.4 14.5 0.00 0.05 0.05 71 1010.1
20260904185752 28 174 9.7 16.1 0.00 0.05 0.05 72 1010.1
20260904185241 27 119 11.3 16.1 0.00 0.05 0.05 73 1010.1
20260904185228 27 147 8.0 14.5 0.00 0.05 0.05 74 1010.1
20260904184236 27 134 8.0 14.5 0.00 0.05 0.05 75 1010.2
20260904183722 27 144 8.0 14.5 0.00 0.05 0.05 74 1010.2
20260904183224 27 138 8.0 12.9 0.00 0.05 0.05 74 1010.2
20260904182718 27 130 6.4 11.3 0.00 0.05 0.05 73 1010.3
20260904182711 27 105 4.8 9.7 0.00 0.05 0.05 73 1010.3
20260904181650 28 163 6.4 9.7 0.00 0.05 0.05 70 1010.3
20260904181119 27 69 8.0 11.3 0.00 0.05 0.05 69 1010.4
20260904180620 27 121 8.0 12.9 0.00 0.05 0.05 71 1010.4
20260904180119 27 80 8.0 12.9 0.00 0.05 0.05 69 1010.4
20260904175619 27 103 8.0 12.9 0.00 0.05 0.05 71 1010.4
20260904175120 27 107 8.0 11.3 0.00 0.05 0.05 71 1010.4
20260904174618 28 120 8.0 11.3 0.00 0.05 0.05 68 1010.4
20260904174047 28 103 8.0 11.3 0.00 0.05 0.05 69 1010.3
20260904173532 27 104 6.4 11.3 0.00 0.05 0.05 68 1010.3
20260904173018 27 110 6.4 9.7 0.00 0.05 0.05 69 1010.3
20260904172516 27 82 8.0 11.3 0.00 0.05 0.05 69 1010.4
20260904172013 27 68 8.0 11.3 0.00 0.05 0.05 68 1010.4
20260904171515 27 99 8.0 11.3 0.00 0.05 0.05 68 1010.4
20260904170954 27 77 8.0 12.9 0.00 0.05 0.05 70 1010.2
20260904170455 27 88 9.7 17.7 0.00 0.05 0.05 69 1010.2
20260904165941 27 70 11.3 17.7 0.00 0.05 0.05 69 1010.2
20260904165443 28 93 11.3 16.1 0.00 0.05 0.05 69 1010.1
20260904164921 28 80 11.3 16.1 0.00 0.05 0.05 68 1010.1
20260904164352 28 80 11.3 16.1 0.00 0.05 0.05 69 1010.3
20260904163850 28 66 9.7 17.7 0.00 0.05 0.05 69 1010.3
20260904163346 28 70 8.0 17.7 0.00 0.05 0.05 67 1010.3
20260904162843 29 80 11.3 20.9 0.00 0.05 0.05 66 1010.6
20260904162341 31 22 12.9 27.4 0.00 0.05 0.05 60 1010.6
20260904161814 32 359 9.7 27.4 0.00 0.05 0.05 53 1010.6
20260904161318 31 8 12.9 22.5 0.00 0.05 0.05 55 1010.7
20260904160803 31 6 12.9 22.5 0.00 0.05 0.05 55 1010.7
20260904160257 31 353 12.9 20.9 0.00 0.05 0.05 57 1010.7
20260904155753 30 351 14.5 22.5 0.00 0.05 0.05 57 1010.7
20260904155255 31 348 16.1 22.5 0.00 0.05 0.05 58 1010.7
20260904154957 31 348 16.1 22.5 0.00 0.05 0.05 58 1010.7
20260904154236 30 346 16.1 25.7 0.00 0.05 0.05 59 1010.7
20260904154002 30 5 17.7 25.7 0.00 0.05 0.05 60 1010.7
20260904153212 30 357 17.7 25.7 0.00 0.05 0.05 59 1010.7
20260904152714 30 1 17.7 30.6 0.00 0.05 0.05 58 1010.7
20260904152158 30 338 19.3 30.6 0.00 0.05 0.05 59 1010.7
20260904151656 30 349 19.3 29.0 0.00 0.05 0.05 59 1010.7
20260904151139 30 327 19.3 25.7 0.00 0.05 0.05 58 1010.7
20260904150848 30 344 17.7 24.1 0.00 0.05 0.05 59 1010.7
20260904150111 30 3 16.1 25.7 0.00 0.05 0.05 60 1010.7
20260904145610 30 342 16.1 27.4 0.00 0.05 0.05 60 1010.7
20260904145108 30 319 14.5 27.4 0.00 0.05 0.05 61 1010.7
20260904144835 30 343 12.9 22.5 0.00 0.05 0.05 62 1010.7
20260904144049 30 354 12.9 22.5 0.00 0.05 0.05 62 1010.7
20260904143540 30 358 14.5 22.5 0.00 0.05 0.05 63 1010.7
20260904143040 30 344 14.5 22.5 0.00 0.05 0.05 63 1010.7
20260904142516 30 344 14.5 24.1 0.00 0.05 0.05 64 1010.8
20260904142227 29 334 14.5 24.1 0.00 0.05 0.05 65 1010.8
20260904141734 29 322 14.5 24.1 0.00 0.05 0.05 65 1010.8
20260904141205 29 6 16.1 27.4 0.00 0.05 0.05 66 1010.7
20260904140438 29 338 16.1 27.4 0.00 0.05 0.05 66 1010.7
20260904135940 29 333 17.7 29.0 0.00 0.05 0.05 67 1010.6
20260904135853 28 7 19.3 29.0 0.00 0.05 0.05 67 1010.6
20260904134906 28 352 17.7 27.4 0.00 0.05 0.05 68 1010.6
20260904134409 28 329 17.7 27.4 0.00 0.05 0.05 68 1010.3
20260904133856 28 328 16.1 27.4 0.00 0.05 0.05 69 1010.3
20260904133355 28 290 16.1 22.5 0.00 0.05 0.05 70 1010.3
20260904132855 28 288 16.1 25.7 0.00 0.05 0.05 70 1010.3
20260904132324 28 313 16.1 25.7 0.00 0.05 0.05 71 1010.3
20260904131808 28 311 19.3 29.0 0.00 0.05 0.05 72 1010.3
20260904131303 27 304 20.9 30.6 0.00 0.05 0.05 73 1010.2
20260904131023 27 308 17.7 30.6 0.00 0.05 0.05 73 1010.2
20260904130250 27 311 14.5 24.1 0.00 0.05 0.05 75 1010.2
20260904125750 27 283 14.5 19.3 0.00 0.05 0.05 76 1010.3
20260904125251 27 328 14.5 22.5 0.00 0.05 0.05 78 1010.3
20260904124727 26 275 12.9 22.5 0.00 0.05 0.05 79 1010.3
20260904124207 26 278 12.9 20.9 0.00 0.05 0.05 79 1010.2
20260904123642 26 295 12.9 19.3 0.00 0.05 0.05 80 1010.2
20260904123140 26 269 11.3 19.3 0.00 0.05 0.05 81 1010.2
20260904122641 26 288 11.3 19.3 0.00 0.05 0.05 82 1010.2
20260904122410 25 271 11.3 17.7 0.00 0.05 0.05 83 1010.2
20260904121615 25 280 11.3 17.7 0.00 0.05 0.05 84 1010.2
20260904121112 25 269 12.9 20.9 0.00 0.05 0.05 84 1010.2
20260904120559 25 270 14.5 20.9 0.00 0.05 0.05 84 1010.2
20260904115537 25 259 12.9 22.5 0.00 0.05 0.05 85 1010.1
20260904115009 24 284 14.5 24.1 0.00 0.05 0.05 85 1010.1
20260904114505 24 244 12.9 24.1 0.00 0.05 0.05 86 1010.1
20260904113940 24 284 14.5 20.9 0.00 0.05 0.05 86 1010.0
20260904113420 24 248 12.9 20.9 0.00 0.05 0.05 86 1010.0
20260904112915 24 266 14.5 22.5 0.00 0.05 0.05 86 1009.7
20260904112413 24 265 14.5 22.5 0.00 0.05 0.05 86 1009.7
20260904111912 24 254 12.9 19.3 0.00 0.05 0.05 86 1009.7
20260904111351 24 259 14.5 20.9 0.00 0.05 0.05 86 1009.7
20260904110824 24 251 14.5 20.9 0.00 0.05 0.05 86 1009.7
20260904110321 24 274 12.9 22.5 0.00 0.05 0.05 86 1009.7
20260904105758 24 262 12.9 19.3 0.00 0.05 0.05 86 1009.6
20260904105243 24 274 11.3 19.3 0.00 0.05 0.05 86 1009.6
20260904104745 24 254 12.9 24.1 0.00 0.05 0.05 86 1009.6
20260904104223 24 269 16.1 24.1 0.00 0.05 0.05 86 1009.5
20260904103722 24 267 16.1 27.4 0.00 0.05 0.05 86 1009.5
20260904103221 24 255 16.1 27.4 0.00 0.08 0.05 86 1009.5
20260904102927 24 299 14.5 24.1 0.00 0.08 0.05 86 1009.5
20260904102142 24 281 14.5 24.1 0.00 0.08 0.05 86 1009.5
20260904101635 24 241 12.9 24.1 0.00 0.10 0.05 86 1009.5
20260904101138 24 294 12.9 24.1 0.00 0.10 0.05 86 1009.5
20260904100831 24 267 12.9 24.1 0.00 0.13 0.05 86 1009.5
20260904100546 24 284 14.5 24.1 0.00 0.15 0.05 86 1009.5
20260904095602 24 268 14.5 24.1 0.00 0.18 0.05 85 1009.4
20260904095050 24 250 14.5 24.1 0.00 0.20 0.05 85 1009.4
20260904094550 24 261 12.9 22.5 0.00 0.25 0.05 85 1009.4
20260904094036 24 246 14.5 22.5 0.00 0.25 0.05 85 1009.3
20260904093534 24 283 12.9 20.9 0.00 0.25 0.05 85 1009.3
20260904093034 24 265 14.5 27.4 0.00 0.25 0.05 85 1009.3
20260904092525 24 270 14.5 27.4 0.00 0.25 0.05 85 1009.3
20260904092025 24 282 14.5 22.5 0.00 0.25 0.05 85 1009.3